Location: Llanfihangel-Ystrad
(52.1833°N, 4.1667°W)
Time: 18:29:51
(UTC+00:00)

Cosmos 2173 Rocket - Pass Details

Date: 17 February 2020
Orbit: 944 x 1001 km, 83.0° (Epoch: 27 March)

Event Time Altitude Azimuth Distance (km) Brightness Sun altitude
Rises 06:24:07 0° 346° (NNW) 3,725 6.8 -10.6°
Reaches altitude 10° 06:26:45 10° 340° (NNW) 2,765 6.1 -10.2°
Maximum altitude 06:32:43 45° 271° (W) 1,314 4.3 -9.3°
Drops below altitude 10° 06:38:34 10° 200° (SSW) 2,711 6.2 -8.4°
Sets 06:41:08 0° 195° (SSW) 3,645 6.9 -8.0°
